Home   Weather   Brunn am Gebirge   Past weeks

Flag for Austria Past Weather in Brunn am Gebirge, Lower Austria, Austria — Yesterday and Last 2 Weeks

Now
67 °F

Mild.


Feels Like: 67 °F
Forecast: 50 / 75 °F
Wind: 6 mph from West

Location: Wien / Hohe Warte

Current Time: Sep 29, 2016 at 3:48:34 AM

Latest Report: Sep 29, 2016 at 3:00 AM


Visibility: N/A

Pressure: 30.27 "Hg

Humidity: 60%

Dew Point: 53 °F

Location of Brunn am GebirgeLocation

Past Weather in Brunn am Gebirge — Graph

°F

Brunn am Gebirge Temperature Yesterday

Maximum temperature yesterday: 74 °F (at 4:00 PM)
Minimum temperature yesterday: 49 °F (at 7:00 AM)
Average temperature yesterday: 61 °F

High & Low Weather Summary for the Past Weeks

 TemperatureHumidityPressure
High82 °F (Sep 15, 4:00 PM)95% (Sep 16, 6:00 AM)30.38 "Hg (Sep 16, 6:00 AM)
Low44 °F (Sep 23, 7:00 AM)37% (Sep 14, 6:00 PM)29.75 "Hg (Sep 17, 6:00 AM)
Average62 °F69%30.08 "Hg
* Reported Sep 14 2:00 AM — Sep 29 2:00 AM, Brunn am Gebirge, Weather by CustomWeather, © 2016

Note: Actual official high and low records may vary slightly from our data, if they occured in-between our weather recording intervals... More about our weather records

Advertising

Brunn am Gebirge Weather History for the Previous 24 Hours

Scroll right to see more
 ConditionsComfort  
Time TempWeatherWind HumidityBarometerVisibility
2:00 AM
Thu, Sep 29
66 °FPassing clouds.8 mph63%30.27 "Hg12 mi
1:00 AM66 °FMild.7 mph65%30.27 "HgN/A
12:00 AM66 °FMild.7 mph67%30.28 "HgN/A
11:00 PM
Wed, Sep 28
66 °FPassing clouds.7 mph68%30.28 "Hg12 mi
10:00 PM66 °FPassing clouds.7 mph66%30.28 "Hg12 mi
9:00 PM66 °FPassing clouds.7 mph66%30.29 "Hg12 mi
8:00 PM66 °FPassing clouds.7 mph64%30.29 "Hg16 mi
7:00 PM67 °FPassing clouds.5 mph57%30.27 "Hg19 mi
6:00 PM69 °FOvercast.5 mph50%30.28 "Hg25 mi
5:00 PM72 °FOvercast.6 mph45%30.27 "Hg25 mi
4:00 PM74 °FOvercast.3 mph45%30.27 "Hg25 mi
3:00 PM73 °FOvercast.6 mph45%30.29 "Hg22 mi
2:00 PM72 °FPartly sunny.5 mph46%30.31 "Hg19 mi
1:00 PM70 °FPartly sunny.5 mph56%30.34 "Hg11 mi
12:00 PM69 °FMild.5 mph53%30.35 "HgN/A
11:00 AM64 °FPartly sunny.1 mph64%30.37 "Hg6 mi
10:00 AM60 °FPartly sunny.2 mph73%30.38 "Hg6 mi
9:00 AM55 °FPartly sunny.1 mph83%30.37 "Hg6 mi
8:00 AM51 °FCool.1 mph94%30.38 "HgN/A
7:00 AM49 °FPassing clouds.1 mph95%30.37 "Hg7 mi
6:00 AM50 °FPassing clouds.1 mph95%30.37 "Hg7 mi
5:00 AM50 °FCool.1 mph94%30.37 "HgN/A
4:00 AM51 °FCool.1 mph93%30.37 "HgN/A
3:00 AM51 °FCool.1 mph92%30.37 "HgN/A
Weather by CustomWeather, © 2016

See weather overviewHow to use our weather pages